| time (UTC) | temp C | wind direction | speed KPH | gust KPH | rain 1hr cm | rain 24hr cm | rain mn cm | humidity % | barometer mb |
| 20260505093035 | 13 | 228 | 0.0 | 3.2 | 0.00 | 0.00 | 0.00 | 68 | 965.9 |
| 20260505092533 | 13 | 228 | 0.0 | 0.0 | 0.00 | 0.00 | 0.00 | 69 | 965.8 |
| 20260505092031 | 13 | 226 | 0.0 | 1.6 | 0.00 | 0.00 | 0.00 | 68 | 965.9 |
| 20260505091529 | 13 | 228 | 0.0 | 1.6 | 0.00 | 0.00 | 0.00 | 70 | 966.0 |
| 20260505091027 | 13 | 228 | 0.0 | 0.0 | 0.00 | 0.00 | 0.00 | 71 | 966.0 |
| 20260505090525 | 13 | 227 | 0.0 | 1.6 | 0.00 | 0.00 | 0.00 | 70 | 966.0 |
| 20260505090023 | 13 | 228 | 0.0 | 0.0 | 0.00 | 0.00 | 0.00 | 70 | 965.9 |
| 20260505085521 | 13 | 225 | 0.0 | 0.0 | 0.00 | 0.00 | 0.00 | 70 | 965.9 |
| 20260505085019 | 13 | 227 | 0.0 | 0.0 | 0.00 | 0.00 | 0.00 | 70 | 965.9 |
| 20260505084517 | 13 | 228 | 0.0 | 0.0 | 0.00 | 0.00 | 0.00 | 70 | 965.9 |
| 20260505084015 | 13 | 231 | 0.0 | 0.0 | 0.00 | 0.00 | 0.00 | 71 | 965.9 |
| 20260505083513 | 13 | 228 | 0.0 | 0.0 | 0.00 | 0.00 | 0.00 | 71 | 965.8 |
| 20260505083011 | 13 | 228 | 0.0 | 0.0 | 0.00 | 0.00 | 0.00 | 71 | 965.7 |
| 20260505082509 | 13 | 226 | 0.0 | 1.6 | 0.00 | 0.00 | 0.00 | 71 | 965.7 |
| 20260505082007 | 13 | 230 | 0.0 | 0.0 | 0.00 | 0.00 | 0.00 | 70 | 965.7 |
| 20260505081505 | 13 | 227 | 0.0 | 0.0 | 0.00 | 0.00 | 0.00 | 70 | 965.6 |
| 20260505081003 | 14 | 227 | 0.0 | 0.0 | 0.00 | 0.00 | 0.00 | 69 | 965.5 |
| 20260505080501 | 14 | 227 | 0.0 | 0.0 | 0.00 | 0.00 | 0.00 | 68 | 965.4 |
| 20260505075959 | 14 | 225 | 0.0 | 1.6 | 0.00 | 0.00 | 0.00 | 68 | 965.4 |
| 20260505075457 | 15 | 227 | 0.0 | 0.0 | 0.00 | 0.00 | 0.00 | 67 | 965.4 |
| 20260505074954 | 15 | 222 | 0.0 | 0.0 | 0.00 | 0.00 | 0.00 | 66 | 965.4 |
| 20260505074453 | 15 | 224 | 0.0 | 1.6 | 0.00 | 0.00 | 0.00 | 66 | 965.4 |
| 20260505073951 | 15 | 228 | 0.0 | 1.6 | 0.00 | 0.00 | 0.00 | 66 | 965.3 |
| 20260505073449 | 15 | 244 | 0.0 | 0.0 | 0.00 | 0.00 | 0.00 | 65 | 965.3 |
| 20260505072947 | 15 | 223 | 0.0 | 1.6 | 0.00 | 0.00 | 0.00 | 64 | 965.3 |
| 20260505072445 | 15 | 207 | 0.0 | 1.6 | 0.00 | 0.00 | 0.00 | 64 | 965.3 |
| 20260505071943 | 15 | 225 | 0.0 | 1.6 | 0.00 | 0.00 | 0.00 | 64 | 965.3 |
| 20260505071441 | 16 | 232 | 0.0 | 1.6 | 0.00 | 0.00 | 0.00 | 63 | 965.4 |
| 20260505070939 | 16 | 237 | 0.0 | 1.6 | 0.00 | 0.00 | 0.00 | 62 | 965.4 |
| 20260505070437 | 16 | 238 | 0.0 | 0.0 | 0.00 | 0.00 | 0.00 | 63 | 965.4 |
| 20260505065935 | 16 | 230 | 0.0 | 1.6 | 0.00 | 0.00 | 0.00 | 62 | 965.4 |
| 20260505065433 | 16 | 229 | 0.0 | 1.6 | 0.00 | 0.00 | 0.00 | 62 | 965.4 |
| 20260505064931 | 16 | 228 | 0.0 | 1.6 | 0.00 | 0.00 | 0.00 | 62 | 965.4 |
| 20260505064429 | 16 | 226 | 1.6 | 1.6 | 0.00 | 0.00 | 0.00 | 62 | 965.3 |
| 20260505063927 | 16 | 227 | 1.6 | 1.6 | 0.00 | 0.00 | 0.00 | 61 | 965.3 |
| 20260505063425 | 16 | 233 | 1.6 | 3.2 | 0.00 | 0.00 | 0.00 | 61 | 965.3 |
| 20260505062923 | 16 | 239 | 1.6 | 1.6 | 0.00 | 0.00 | 0.00 | 60 | 965.3 |
| 20260505062421 | 16 | 231 | 1.6 | 3.2 | 0.00 | 0.00 | 0.00 | 61 | 965.3 |
| 20260505061920 | 17 | 244 | 1.6 | 1.6 | 0.00 | 0.00 | 0.00 | 60 | 965.2 |
| 20260505061417 | 16 | 228 | 3.2 | 3.2 | 0.00 | 0.00 | 0.00 | 60 | 965.1 |
| 20260505060915 | 16 | 232 | 3.2 | 4.8 | 0.00 | 0.00 | 0.00 | 61 | 965.2 |
| 20260505060414 | 16 | 231 | 3.2 | 4.8 | 0.00 | 0.00 | 0.00 | 62 | 965.1 |
| 20260505055911 | 16 | 234 | 3.2 | 3.2 | 0.00 | 0.00 | 0.00 | 62 | 965.1 |
| 20260505055407 | 17 | 224 | 1.6 | 3.2 | 0.00 | 0.00 | 0.00 | 61 | 965.1 |
| 20260505054905 | 17 | 225 | 1.6 | 3.2 | 0.00 | 0.00 | 0.00 | 60 | 965.1 |
| 20260505054403 | 16 | 249 | 1.6 | 3.2 | 0.00 | 0.00 | 0.00 | 61 | 965.1 |
| 20260505053901 | 16 | 220 | 1.6 | 3.2 | 0.00 | 0.00 | 0.00 | 62 | 965.0 |
| 20260505053359 | 16 | 242 | 0.0 | 1.6 | 0.00 | 0.00 | 0.00 | 63 | 965.0 |
| 20260505052857 | 16 | 245 | 0.0 | 1.6 | 0.00 | 0.00 | 0.00 | 63 | 964.9 |
| 20260505052355 | 16 | 219 | 0.0 | 1.6 | 0.00 | 0.00 | 0.00 | 63 | 964.8 |
| 20260505051853 | 16 | 212 | 1.6 | 1.6 | 0.00 | 0.00 | 0.00 | 62 | 964.8 |
| 20260505051351 | 16 | 209 | 1.6 | 1.6 | 0.00 | 0.00 | 0.00 | 62 | 964.8 |
| 20260505050849 | 17 | 222 | 1.6 | 3.2 | 0.00 | 0.00 | 0.00 | 61 | 964.9 |
| 20260505050348 | 17 | 225 | 1.6 | 1.6 | 0.00 | 0.00 | 0.00 | 61 | 965.0 |
| 20260505041327 | 17 | 240 | 0.0 | 0.0 | 0.00 | 0.00 | 0.00 | 61 | 964.9 |
| 20260505040825 | 17 | 234 | 0.0 | 1.6 | 0.00 | 0.00 | 0.00 | 60 | 964.9 |
| 20260505040323 | 17 | 212 | 1.6 | 1.6 | 0.00 | 0.00 | 0.00 | 60 | 964.9 |
| 20260505035820 | 17 | 222 | 1.6 | 1.6 | 0.00 | 0.00 | 0.00 | 59 | 964.9 |
| 20260505035317 | 17 | 205 | 1.6 | 1.6 | 0.00 | 0.00 | 0.00 | 59 | 964.9 |
| 20260505034814 | 17 | 222 | 1.6 | 3.2 | 0.00 | 0.00 | 0.00 | 58 | 964.9 |
| 20260505034312 | 17 | 237 | 1.6 | 3.2 | 0.00 | 0.00 | 0.00 | 59 | 965.0 |
| 20260505033810 | 17 | 213 | 1.6 | 3.2 | 0.00 | 0.00 | 0.00 | 59 | 965.0 |
| 20260505033308 | 18 | 229 | 1.6 | 3.2 | 0.00 | 0.00 | 0.00 | 58 | 965.1 |
| 20260505032807 | 18 | 228 | 1.6 | 3.2 | 0.00 | 0.00 | 0.00 | 58 | 965.1 |
| 20260505032305 | 18 | 228 | 1.6 | 3.2 | 0.00 | 0.00 | 0.00 | 57 | 965.1 |
| 20260505031802 | 18 | 222 | 1.6 | 1.6 | 0.00 | 0.00 | 0.00 | 56 | 965.1 |
| 20260505031300 | 18 | 226 | 3.2 | 3.2 | 0.00 | 0.00 | 0.00 | 56 | 965.0 |
| 20260505030758 | 18 | 224 | 1.6 | 3.2 | 0.00 | 0.00 | 0.00 | 55 | 965.0 |
| 20260505030256 | 18 | 224 | 3.2 | 4.8 | 0.00 | 0.00 | 0.00 | 55 | 965.0 |
| 20260505025754 | 18 | 242 | 3.2 | 4.8 | 0.00 | 0.00 | 0.00 | 55 | 965.0 |
| 20260505025252 | 19 | 249 | 3.2 | 4.8 | 0.00 | 0.00 | 0.00 | 55 | 965.1 |
| 20260505024750 | 19 | 225 | 3.2 | 4.8 | 0.00 | 0.00 | 0.00 | 54 | 965.1 |
| 20260505024248 | 19 | 238 | 3.2 | 4.8 | 0.00 | 0.00 | 0.00 | 54 | 965.1 |
| 20260505023746 | 19 | 225 | 3.2 | 4.8 | 0.00 | 0.00 | 0.00 | 54 | 965.0 |
| 20260505023244 | 18 | 242 | 3.2 | 3.2 | 0.00 | 0.00 | 0.00 | 55 | 965.1 |
| 20260505022742 | 18 | 230 | 1.6 | 3.2 | 0.00 | 0.00 | 0.00 | 55 | 965.1 |
| 20260505022240 | 18 | 254 | 1.6 | 3.2 | 0.00 | 0.00 | 0.00 | 56 | 965.1 |
| 20260505021738 | 18 | 237 | 1.6 | 3.2 | 0.00 | 0.00 | 0.00 | 56 | 965.1 |
| 20260505021236 | 18 | 241 | 1.6 | 3.2 | 0.00 | 0.00 | 0.00 | 56 | 965.0 |
| 20260505020734 | 18 | 232 | 3.2 | 3.2 | 0.00 | 0.00 | 0.00 | 56 | 965.0 |
| 20260505020232 | 18 | 233 | 1.6 | 1.6 | 0.00 | 0.00 | 0.00 | 56 | 965.0 |
| 20260505015730 | 18 | 232 | 1.6 | 1.6 | 0.00 | 0.00 | 0.00 | 56 | 965.0 |
| 20260505015228 | 18 | 237 | 1.6 | 1.6 | 0.00 | 0.00 | 0.00 | 56 | 965.0 |
| 20260505014726 | 18 | 229 | 1.6 | 1.6 | 0.00 | 0.00 | 0.00 | 55 | 964.9 |
| 20260505014224 | 18 | 230 | 1.6 | 1.6 | 0.00 | 0.00 | 0.00 | 55 | 964.9 |
| 20260505013722 | 19 | 243 | 1.6 | 1.6 | 0.00 | 0.00 | 0.00 | 55 | 964.9 |
| 20260505013219 | 19 | 234 | 1.6 | 1.6 | 0.00 | 0.00 | 0.00 | 54 | 964.8 |
| 20260505012215 | 19 | 233 | 1.6 | 1.6 | 0.00 | 0.00 | 0.00 | 55 | 964.8 |
| 20260505011713 | 19 | 234 | 1.6 | 1.6 | 0.00 | 0.00 | 0.00 | 55 | 964.7 |
| 20260505011211 | 19 | 230 | 1.6 | 1.6 | 0.00 | 0.00 | 0.00 | 55 | 964.7 |
| 20260505010709 | 19 | 225 | 1.6 | 1.6 | 0.00 | 0.00 | 0.00 | 55 | 964.7 |
| 20260505010207 | 19 | 234 | 1.6 | 1.6 | 0.00 | 0.00 | 0.00 | 55 | 964.7 |
| 20260505005705 | 19 | 227 | 1.6 | 1.6 | 0.00 | 0.00 | 0.00 | 54 | 964.7 |
| 20260505005203 | 19 | 230 | 1.6 | 1.6 | 0.00 | 0.00 | 0.00 | 54 | 964.6 |
| 20260505004701 | 19 | 237 | 1.6 | 1.6 | 0.00 | 0.00 | 0.00 | 54 | 964.5 |
| 20260505004159 | 19 | 236 | 1.6 | 1.6 | 0.00 | 0.00 | 0.00 | 55 | 964.5 |
| 20260505003657 | 19 | 237 | 0.0 | 0.0 | 0.00 | 0.00 | 0.00 | 56 | 964.5 |
| 20260505003155 | 20 | 231 | 0.0 | 0.0 | 0.00 | 0.00 | 0.00 | 56 | 964.5 |
| 20260505002653 | 20 | 236 | 0.0 | 0.0 | 0.00 | 0.00 | 0.00 | 54 | 964.5 |
| 20260505002151 | 20 | 240 | 1.6 | 1.6 | 0.00 | 0.00 | 0.00 | 52 | 964.5 |
| 20260505001649 | 20 | 223 | 1.6 | 1.6 | 0.00 | 0.00 | 0.00 | 52 | 964.5 |
| 20260505001147 | 20 | 236 | 1.6 | 1.6 | 0.00 | 0.00 | 0.00 | 51 | 964.5 |
| 20260505000645 | 21 | 243 | 1.6 | 3.2 | 0.00 | 0.00 | 0.00 | 50 | 964.4 |
| 20260505000143 | 21 | 235 | 1.6 | 1.6 | 0.00 | 0.00 | 0.00 | 50 | 964.4 |
| 20260504235641 | 21 | 228 | 1.6 | 3.2 | 0.00 | 0.00 | 0.00 | 50 | 964.4 |
| 20260504235139 | 21 | 239 | 1.6 | 1.6 | 0.00 | 0.00 | 0.00 | 49 | 964.3 |
| 20260504234636 | 21 | 242 | 1.6 | 1.6 | 0.00 | 0.00 | 0.00 | 50 | 964.3 |
| 20260504234134 | 21 | 233 | 0.0 | 1.6 | 0.00 | 0.00 | 0.00 | 49 | 964.3 |
| 20260504233632 | 21 | 216 | 1.6 | 1.6 | 0.00 | 0.00 | 0.00 | 49 | 964.3 |
| 20260504233130 | 21 | 230 | 1.6 | 1.6 | 0.00 | 0.00 | 0.00 | 49 | 964.3 |
| 20260504232627 | 21 | 232 | 1.6 | 1.6 | 0.00 | 0.00 | 0.00 | 49 | 964.4 |
| 20260504232125 | 21 | 237 | 1.6 | 1.6 | 0.00 | 0.00 | 0.00 | 48 | 964.4 |
| 20260504231623 | 22 | 238 | 3.2 | 3.2 | 0.00 | 0.00 | 0.00 | 47 | 964.3 |
| 20260504231121 | 22 | 214 | 1.6 | 3.2 | 0.00 | 0.00 | 0.00 | 47 | 964.3 |
| 20260504230619 | 22 | 248 | 1.6 | 3.2 | 0.00 | 0.00 | 0.00 | 47 | 964.3 |
| 20260504230117 | 22 | 246 | 3.2 | 3.2 | 0.00 | 0.00 | 0.00 | 46 | 964.4 |
| 20260504225615 | 22 | 237 | 3.2 | 3.2 | 0.00 | 0.00 | 0.00 | 45 | 964.3 |
| 20260504225113 | 22 | 222 | 1.6 | 1.6 | 0.00 | 0.00 | 0.00 | 45 | 964.3 |
| 20260504224611 | 22 | 243 | 1.6 | 3.2 | 0.00 | 0.00 | 0.00 | 44 | 964.4 |
| 20260504224109 | 22 | 248 | 1.6 | 1.6 | 0.00 | 0.00 | 0.00 | 46 | 964.5 |
| 20260504223607 | 22 | 243 | 1.6 | 3.2 | 0.00 | 0.00 | 0.00 | 45 | 964.5 |
| 20260504223104 | 22 | 236 | 4.8 | 6.4 | 0.00 | 0.00 | 0.00 | 44 | 964.4 |
| 20260504222602 | 23 | 225 | 3.2 | 3.2 | 0.00 | 0.00 | 0.00 | 46 | 964.5 |
| 20260504222100 | 23 | 242 | 1.6 | 3.2 | 0.00 | 0.00 | 0.00 | 45 | 964.6 |
| 20260504221558 | 23 | 248 | 1.6 | 1.6 | 0.00 | 0.00 | 0.00 | 45 | 964.5 |
| 20260504221056 | 23 | 230 | 3.2 | 3.2 | 0.00 | 0.00 | 0.00 | 45 | 964.6 |
| 20260504220554 | 22 | 211 | 1.6 | 3.2 | 0.00 | 0.00 | 0.00 | 46 | 964.6 |
| 20260504220053 | 22 | 245 | 1.6 | 3.2 | 0.00 | 0.00 | 0.00 | 46 | 964.5 |
| 20260504215550 | 22 | 276 | 3.2 | 3.2 | 0.00 | 0.00 | 0.00 | 45 | 964.5 |
| 20260504215048 | 22 | 255 | 3.2 | 4.8 | 0.00 | 0.00 | 0.00 | 46 | 964.5 |
| 20260504214546 | 23 | 225 | 3.2 | 4.8 | 0.00 | 0.00 | 0.00 | 46 | 964.5 |
| 20260504214044 | 22 | 212 | 1.6 | 1.6 | 0.00 | 0.00 | 0.00 | 49 | 964.6 |
| 20260504213542 | 22 | 223 | 3.2 | 4.8 | 0.00 | 0.00 | 0.00 | 47 | 964.5 |
| 20260504213040 | 22 | 234 | 3.2 | 3.2 | 0.00 | 0.00 | 0.00 | 48 | 964.6 |
| 20260504212538 | 22 | 219 | 1.6 | 3.2 | 0.00 | 0.00 | 0.00 | 50 | 964.5 |
| 20260504212036 | 22 | 224 | 3.2 | 4.8 | 0.00 | 0.00 | 0.00 | 47 | 964.6 |
| 20260504211534 | 22 | 227 | 3.2 | 3.2 | 0.00 | 0.00 | 0.00 | 47 | 964.7 |
| 20260504211032 | 22 | 179 | 3.2 | 4.8 | 0.00 | 0.00 | 0.00 | 47 | 964.7 |
| 20260504210530 | 22 | 198 | 1.6 | 3.2 | 0.00 | 0.00 | 0.00 | 48 | 964.7 |
| 20260504210028 | 23 | 229 | 1.6 | 3.2 | 0.00 | 0.00 | 0.00 | 48 | 964.8 |
| 20260504205526 | 22 | 203 | 1.6 | 1.6 | 0.00 | 0.00 | 0.00 | 48 | 964.8 |
| 20260504205024 | 22 | 196 | 1.6 | 3.2 | 0.00 | 0.00 | 0.00 | 50 | 965.0 |
| 20260504204522 | 23 | 211 | 1.6 | 3.2 | 0.00 | 0.00 | 0.00 | 50 | 964.9 |
| 20260504204019 | 22 | 244 | 1.6 | 3.2 | 0.00 | 0.00 | 0.00 | 49 | 965.0 |
| 20260504203517 | 22 | 198 | 1.6 | 3.2 | 0.00 | 0.00 | 0.00 | 49 | 965.0 |
| 20260504203015 | 22 | 168 | 3.2 | 3.2 | 0.00 | 0.00 | 0.00 | 50 | 965.0 |
| 20260504202513 | 22 | 197 | 1.6 | 1.6 | 0.00 | 0.00 | 0.00 | 50 | 965.2 |
| 20260504202011 | 22 | 196 | 3.2 | 3.2 | 0.00 | 0.00 | 0.00 | 48 | 965.2 |
| 20260504201509 | 22 | 200 | 1.6 | 4.8 | 0.00 | 0.00 | 0.00 | 49 | 965.3 |
| 20260504201007 | 22 | 199 | 1.6 | 1.6 | 0.00 | 0.00 | 0.00 | 47 | 965.4 |
| 20260504200505 | 22 | 229 | 3.2 | 4.8 | 0.00 | 0.00 | 0.00 | 49 | 965.3 |
| 20260504200003 | 22 | 224 | 1.6 | 3.2 | 0.00 | 0.00 | 0.00 | 51 | 965.4 |
| 20260504195501 | 22 | 209 | 1.6 | 3.2 | 0.00 | 0.00 | 0.00 | 50 | 965.4 |
| 20260504194959 | 22 | 265 | 1.6 | 3.2 | 0.00 | 0.00 | 0.00 | 49 | 965.5 |
| 20260504194457 | 22 | 216 | 1.6 | 1.6 | 0.00 | 0.00 | 0.00 | 53 | 965.5 |
| 20260504193955 | 22 | 174 | 1.6 | 4.8 | 0.00 | 0.00 | 0.00 | 51 | 965.6 |
| 20260504193452 | 21 | 249 | 1.6 | 3.2 | 0.00 | 0.00 | 0.00 | 52 | 965.7 |
| 20260504192950 | 21 | 227 | 1.6 | 3.2 | 0.00 | 0.00 | 0.00 | 53 | 965.9 |
| 20260504192448 | 21 | 170 | 1.6 | 3.2 | 0.00 | 0.00 | 0.00 | 53 | 966.0 |
| 20260504191946 | 21 | 194 | 1.6 | 3.2 | 0.00 | 0.00 | 0.00 | 53 | 966.1 |
| 20260504191443 | 21 | 214 | 1.6 | 3.2 | 0.00 | 0.00 | 0.00 | 53 | 966.2 |
| 20260504190941 | 21 | 186 | 3.2 | 4.8 | 0.00 | 0.00 | 0.00 | 54 | 966.3 |
| 20260504190439 | 21 | 184 | 3.2 | 4.8 | 0.00 | 0.00 | 0.00 | 54 | 966.4 |
| 20260504185937 | 21 | 240 | 1.6 | 1.6 | 0.00 | 0.00 | 0.00 | 54 | 966.4 |
| 20260504185435 | 21 | 185 | 3.2 | 3.2 | 0.00 | 0.00 | 0.00 | 55 | 966.4 |
| 20260504184933 | 21 | 186 | 3.2 | 4.8 | 0.00 | 0.00 | 0.00 | 55 | 966.5 |
| 20260504184430 | 21 | 131 | 1.6 | 1.6 | 0.00 | 0.00 | 0.00 | 53 | 966.5 |
| 20260504183928 | 21 | 234 | 1.6 | 3.2 | 0.00 | 0.00 | 0.00 | 52 | 966.7 |
| 20260504183426 | 20 | 183 | 1.6 | 3.2 | 0.00 | 0.00 | 0.00 | 55 | 966.8 |
| 20260504182924 | 20 | 289 | 1.6 | 3.2 | 0.00 | 0.00 | 0.00 | 52 | 966.8 |
| 20260504182422 | 20 | 202 | 1.6 | 1.6 | 0.00 | 0.00 | 0.00 | 52 | 966.9 |
| 20260504181920 | 20 | 239 | 3.2 | 4.8 | 0.00 | 0.00 | 0.00 | 51 | 966.9 |
| 20260504181418 | 20 | 179 | 3.2 | 4.8 | 0.00 | 0.00 | 0.00 | 52 | 966.9 |
| 20260504180916 | 20 | 176 | 1.6 | 4.8 | 0.00 | 0.00 | 0.00 | 53 | 966.9 |
| 20260504180414 | 20 | 169 | 3.2 | 4.8 | 0.00 | 0.00 | 0.00 | 53 | 967.0 |
| 20260504175912 | 20 | 185 | 0.0 | 1.6 | 0.00 | 0.00 | 0.00 | 53 | 967.1 |
| 20260504175410 | 20 | 190 | 1.6 | 3.2 | 0.00 | 0.00 | 0.00 | 53 | 967.1 |
| 20260504174908 | 20 | 178 | 1.6 | 3.2 | 0.00 | 0.00 | 0.00 | 55 | 967.1 |
| 20260504174406 | 20 | 215 | 1.6 | 3.2 | 0.00 | 0.00 | 0.00 | 53 | 967.2 |
| 20260504173904 | 20 | 219 | 1.6 | 3.2 | 0.00 | 0.00 | 0.00 | 54 | 967.3 |
| 20260504173402 | 20 | 209 | 1.6 | 3.2 | 0.00 | 0.00 | 0.00 | 56 | 967.3 |
| 20260504172900 | 19 | 206 | 1.6 | 3.2 | 0.00 | 0.00 | 0.00 | 52 | 967.5 |
| 20260504172358 | 19 | 239 | 3.2 | 4.8 | 0.00 | 0.00 | 0.00 | 53 | 967.5 |
| 20260504171856 | 19 | 209 | 1.6 | 3.2 | 0.00 | 0.00 | 0.00 | 53 | 967.5 |
| 20260504171354 | 19 | 224 | 1.6 | 3.2 | 0.00 | 0.00 | 0.00 | 54 | 967.7 |
| 20260504170851 | 18 | 249 | 1.6 | 3.2 | 0.00 | 0.00 | 0.00 | 55 | 967.8 |
| 20260504170349 | 18 | 246 | 1.6 | 1.6 | 0.00 | 0.00 | 0.00 | 53 | 967.8 |
| 20260504160325 | 16 | 204 | 1.6 | 3.2 | 0.00 | 0.00 | 0.00 | 58 | 968.5 |
| 20260504150801 | 15 | 46 | 3.2 | 4.8 | 0.00 | 0.00 | 0.00 | 58 | 969.1 |
| 20260504150259 | 15 | 46 | 3.2 | 4.8 | 0.00 | 0.00 | 0.00 | 59 | 969.1 |
| 20260504141239 | 12 | 133 | 1.6 | 3.2 | 0.00 | 0.00 | 0.00 | 70 | 969.5 |
| 20260504140737 | 12 | 178 | 1.6 | 4.8 | 0.00 | 0.00 | 0.00 | 74 | 969.6 |
| 20260504140235 | 12 | 196 | 1.6 | 4.8 | 0.00 | 0.00 | 0.00 | 74 | 969.6 |
| 20260504130712 | 11 | 172 | 1.6 | 1.6 | 0.00 | 0.00 | 0.00 | 77 | 969.4 |
| 20260504130210 | 11 | 175 | 0.0 | 1.6 | 0.00 | 0.00 | 0.00 | 78 | 969.3 |
| 20260504120146 | 11 | 225 | 0.0 | 0.0 | 0.00 | 0.00 | 0.00 | 74 | 968.5 |
| 20260504110624 | 6 | 226 | 0.0 | 0.0 | 0.00 | 0.00 | 0.00 | 87 | 968.4 |
| 20260504110122 | 6 | 227 | 0.0 | 0.0 | 0.00 | 0.00 | 0.00 | 87 | 968.3 |
| 20260504100601 | 7 | 227 | 0.0 | 0.0 | 0.00 | 0.00 | 0.00 | 81 | 968.5 |